Location: Beddau
(51.5575°N, 3.3561°W)
Time: 12:45:01
(UTC+00:00)

H-2A R/B - Pass Details

Date: 03 March 2021
Orbit: 732 x 837 km, 98.2° (Epoch: 17 April)

Event Time Altitude Azimuth Distance (km) Brightness Sun altitude
Rises 19:42:20 0° 193° (SSW) 3,370 5.4 -17.0°
Reaches altitude 10° 19:44:56 10° 204° (SSW) 2,446 4.7 -17.4°
Maximum altitude 19:49:46 32° 266° (W) 1,407 4.0 -18.1°
Drops below altitude 10° 19:54:38 10° 329° (NNW) 2,456 5.2 -18.9°
Sets 19:57:15 0° 339° (NNW) 3,386 5.8 -19.3°
